AirNav   TITAN Aviation Fuels
 
 487 users online  

N40 Sky Manor Airport
Pittstown, New Jersey, USA

GOING TO PITTSTOWN?


FAA INFORMATION EFFECTIVE 16 JUNE 2022

Location

FAA Identifier: N40
Lat/Long: 40-33-57.1760N 074-58-45.5090W
40-33.952933N 074-58.758483W
40.5658822,-74.9793081
(estimated)
Elevation: 560 ft. / 171 m (estimated)
Variation: 13W (2010)
From city: 2 miles SW of PITTSTOWN, NJ
Time zone: UTC -4 (UTC -5 during Standard Time)
Zip code: 08867

Airport Operations

Airport use: Open to the public
Activation date: 03/1947
Control tower: no
ARTCC: NEW YORK CENTER
FSS: MILLVILLE FLIGHT SERVICE STATION
NOTAMs facility: MIV (NOTAM-D service available)
Attendance: CONTINUOUS
Wind indicator: yes
Segmented circle: no
Lights: ACTVT REIL RWY 07 & 25; PAPI RWY 07 & 25; MIRL RWY 07/25; TWY LGTS - CTAF.

Airport Communications

CTAF/UNICOM: 122.975
WX AWOS-3: 121.725
ALLENTOWN APPROACH: 119.65 ;3000 FT & BLW 124.45 ;ABV 3000 FT
ALLENTOWN DEPARTURE: 119.65 ;3000 FT & BLW 124.45 ;ABV 3000 FT
IC: 119.65 ;3000 FT & BLW 124.45 ;ABV 3000 FT
WX ASOS at SMQ (15 nm E): 120.6 (908-722-2139)
WX ASOS at DYL (15 nm SW): 118.875 (215-345-0392)
WX AWOS-3 at CKZ (18 nm SW): 126.325 (215-257-7291)
WX ASOS at TTN (19 nm SE): 126.775 (609-538-8690)
WX AWOS-3 at UKT (20 nm SW): 119.475 (215-538-7610)

Airport Services

Fuel available: 100LL
Parking: hangars and tiedowns
Airframe service: MAJOR
Powerplant service: MAJOR
Bottled oxygen: NONE
Bulk oxygen: NONE

Runway Information

Runway 7/25

Dimensions: 2900 x 50 ft. / 884 x 15 m
Surface: asphalt, in good condition
Runway edge lights: medium intensity
RUNWAY 7  RUNWAY 25
Latitude: 40-33.813333N40-34.092533N
Longitude: 074-59.012667W074-58.504300W
Elevation: 548.0 ft.558.0 ft.
Traffic pattern: leftleft
Runway heading: 067 magnetic, 054 true247 magnetic, 234 true
Markings: nonprecision, in good conditionnonprecision, in good condition
Visual slope indicator: 2-light PAPI on left (4.00 degrees glide path)
VGSI AND DESCENT ANGLES NOT COINCIDENT. UNUSBL BYD 4 DEGS RIGHT OF CNTRLN.
2-light PAPI on left (4.00 degrees glide path)
Runway end identifier lights: yesyes
REIL RWY 25 OTS.
Touchdown point: yes, no lightsyes, no lights
Obstructions: 93 ft. trees, 1020 ft. from runway, 360 ft. right of centerline, 9:1 slope to clear99 ft. pline, lighted, 2070 ft. from runway, 210 ft. left of centerline, 18:1 slope to clear
13 FT T-HANGARS 80 FT FM THR 215 FT RIGHT.

Airport Ownership and Management from official FAA records

Ownership: Privately-owned
Owner: SKY MANOR AIRPORT PARTNERS LLC
PO BOX 56
PITTSTOWN, NJ 08867
Phone 908-996-4200
Manager: SKY MANOR AIRPORT PARTNERS LCC
PO BOX 56
PITTSTOWN, NJ 08867
Phone 908-996-4200

Airport Operational Statistics

Aircraft based on the field: 108
Single engine airplanes: 100
Multi engine airplanes: 3
Helicopters: 3
Ultralights: 2
    
Aircraft operations: avg 62/day *
73% local general aviation
27% transient general aviation
<1% air taxi
* for 12-month period ending 20 August 2020

Additional Remarks

HELICOPTER ACTIVITY ON & INVOF ARPT.
APN MAIN RAMP CLSD TO HEL AIR TAX AND HOVER OPS NEAR FUEL PUMP.
DEER & BIRDS ON & INVOF ARPT.
SELF-SERVE FUEL SYSTEM ON NORTH END OF TIE-DOWN RAMP.
FOR CD CTC ALLENTOWN APCH AT 800-728-6322.
AVOID OVERFLIGHT OF HORSE FARM (STABLES) 500 FT N OF ACFT HNGRS.
RWY 07 NOISE ABATEMENT PROCEDURES VFR DEP FLY RWY HDG UNTIL REACHING AT LEAST 1300FT MSL.
RWY 25 NOISE ABATEMENT PROCEDURES VFR DEP SAFETY PERMITTING AT DEP END OF RWY TURN RIGHT FLY HDG 270 UNTIL REACHING AT LEAST 1300FT MSL.

Instrument Procedures

NOTE: All procedures below are presented as PDF files. If you need a reader for these files, you should download the free Adobe Reader.

NOT FOR NAVIGATION. Please procure official charts for flight.
FAA instrument procedures published for use from 16 June 2022 at 0901Z to 14 July 2022 at 0900z.

 
IAPs - Instrument Approach Procedures
RNAV (GPS) RWY 07   download (166KB)
RNAV (GPS) RWY 25   download (169KB)
VOR RWY 07   download (184KB)
NOTE: Special Alternate Minimums apply   download (126KB)
NOTE: Special Take-Off Minimums/Departure Procedures apply   download (150KB)

Other nearby airports with instrument procedures:

N85 - Alexandria Airport (2 nm NW)
N51 - Solberg-Hunterdon Airport (11 nm E)
KSMQ - Somerset Airport (15 nm E)
KDYL - Doylestown Airport (15 nm SW)
N43 - Braden Airpark (16 nm NW)
47N - Central Jersey Regional Airport (18 nm E)
39N - Princeton Airport (18 nm SE)
KCKZ - Pennridge Airport (18 nm SW)
KTTN - Trenton Mercer Airport (19 nm SE)
KUKT - Quakertown Airport (20 nm SW)
 
Loc | Ops | Rwys | IFR | FBO | Links
Com | Nav | Svcs | Stats | Notes
Area around N40 (Sky Manor Airport)
 
Road maps at: MapQuest Bing Google
 
Aerial photo
WARNING: Photo may not be current or correct
Aerial photo of N40 (Sky Manor Airport)
Photo taken 30-Jul-2017
looking southwest.

Do you have a better or more recent aerial photo of Sky Manor Airport that you would like to share? If so, please send us your photo.

 
Sectional chart

 
Airport distance calculator
Flying to Sky Manor Airport? Find the distance to fly.

From to N40

Sunrise and sunset
Times for 30-Jun-2022
 Local
(UTC-4)
 Zulu
(UTC)
Morning civil twilight05:0009:00
Sunrise05:3309:33
Sunset20:3400:34
Evening civil twilight21:0701:07

Current date and time
Zulu (UTC)  30-Jun-2022 09:35:43
Local (UTC-4)  30-Jun-2022 05:35:43
 
METAR
KSMQ 
15nm E 
ASOS 120.60 908-722-2139
300853Z AUTO 00000KT 9SM SCT080 14/14 A3017 RMK AO2 SLP217 T01440144 53001
KDYL 
15nm SW 
300854Z AUTO 00000KT 10SM CLR 18/16 A3019 RMK AO2 SLP218 T01830156 55001
KCKZ 
18nm SW 
300915Z AUTO 34003KT 10SM CLR 15/15 A3022 RMK AO2
KTTN 
19nm SE 
ASOS 133.70 609-538-8690
300853Z AUTO 00000KT 10SM CLR 18/17 A3018 RMK AO2 SLP214 T01830167 55001
KUKT 
20nm SW 
300915Z AUTO 00000KT 10SM CLR 14/14 A3021 RMK A01
KABE 
22nm W 
300851Z 32003KT 10SM CLR 15/13 A3020 RMK AO2 SLP225 T01500128 53002
KXLL 
23nm W 
300915Z AUTO 00000KT 10SM CLR 16/14 A3022 RMK AO2
KMMU 
29nm NE 
300915Z AUTO 00000KT 10SM BKN085 14/14 A3019 RMK AO2
KLOM 
29nm SW 
300915Z AUTO 00000KT 10SM CLR 15/15 A3021 RMK AO2 T01540151
KPNE 
29nm S 
300854Z AUTO 00000KT 10SM CLR 19/17 A3020 RMK AO2 SLP227 T01940167 53001
TAF
KTTN 
19nm SE 
300520Z 3006/0106 VRB03KT P6SM SKC FM301400 33005KT P6SM SKC FM301900 28007KT P6SM SKC FM302300 25004KT P6SM SKC FM010200 VRB03KT P6SM SKC
KABE 
22nm W 
300520Z 3006/0106 VRB02KT P6SM SKC FM301700 29007KT P6SM SKC FM302100 26005KT P6SM FEW250 FM010100 VRB03KT P6SM SKC
NOTAMs
Click for the latest NOTAMs
NOTAMs are issued by the DoD/FAA and will open in a separate window not controlled by AirNav.

 

 
 

FBO, Fuel Providers, and Aircraft Ground Support

  
 Business Name 
 
 Contact 
 
 Services / Description 
 
Fuel Prices
 
Comments
  
 Sky Manor Airport
908-996-4200
[web site]
[email]
Airport management, Aviation fuel, Aircraft parking (ramp or tiedown), Hangars, Flight training, Aircraft rental, Aerial tours / aerial sightseeing, Aircraft maintenance, ...

More info about Sky Manor Airport
Titan
100LL
SS $6.63 
 Updated 28-Jun-2022
 
   write
SS=Self service
Update Fuel Prices
 

Would you like to see your business listed on this page?

 If your business provides an interesting product or service to pilots, flight crews, aircraft, or users of the Sky Manor Airport, you should consider listing it here.  To start the listing process, click on the button below
 
Add a business
 

Other Pages about Sky Manor Airport

www.skymanorairport.com
 
Update a link
 
Copyright © AirNav, LLC. All rights reserved. Privacy Policy  Contact